Location: Unspecified
(0.0000°N, 0.0000°E)
Time: 16:33:42
(UTC+00:00)

deb Explorer IX - Visible Passes

Search period start: 23 May 2018 00:00
Search period end: 02 June 2018 00:00
Orbit: 551 x 1109 km, 38.8° (Epoch: 22 May)

Date Brightness Start Highest point End Pass type
(mag) Time Alt. Az. Time Alt. Az. Time Alt. Az.
23 May ? 02:27:11 15° NE 02:27:11 15° NE 02:28:08 10° NE visible
23 May ? 04:08:40 15° NW 04:08:51 15° NW 04:12:20 10° N visible
24 May ? 03:49:15 14° NNW 03:49:15 14° NNW 03:51:44 10° N visible
25 May ? 03:29:45 13° NNW 03:29:45 13° NNW 03:31:07 10° N visible
26 May ? 03:10:11 11° NNW 03:10:11 11° NNW 03:10:29 10° N visible
